Challenge JP Guerit

Le Jogging Du Calvaire - Rance (4.25 km)

samedi 20 juillet 2019

Le classement original se trouve sur : http://www.challenge-guerit.be/
 
CHALLENGE JP GUERIT
LE JOGGING DU CALVAIRE - RANCE
DISTANCE 4.25 km
samedi 20 juillet 2019
 
place
finish
dos NOM Equipe Catég. Place
catégorie
temps temps/km Vitesse
1 602 MOHDI ALEXANDRE JACO ADH 1 0:15:00 03:32 17.00
2 528 JOLY FLORENTIN LA THURE CAG 1 0:15:43 03:42 16.23
3 540 CRESSON JULIEN - ADH 2 0:15:46 03:43 16.17
4 109 BOURGEOIS OSCAR ESM xxx   0:16:13 03:49 15.72
5 519 DUCARME NICOLAS - ADH 3 0:16:27 03:52 15.50
6 635 BLANCHARD POL HAM/HEURE ADH 4 0:16:34 03:54 15.39
7 612 DELGRANCHE JÉRÔME TEAM LEGUEUX ADH 5 0:17:06 04:01 14.91
8 622 BEKAERT THOMAS ARAMIS ADH 6 0:17:10 04:02 14.85
9 548 DETRE TOBIAS RCABW ADH 7 0:17:11 04:03 14.84
10 504 PIETERS KILIAN JACO ADH 8 0:17:12 04:03 14.83
11 631 KEISER NICOLAS JCHSH ADH 9 0:18:03 04:15 14.13
12 611 WINDAL PATRICIA CABW ADF 1 0:18:36 04:23 13.71
13 546 ROGGE FRANÇOIS JACO CAG 2 0:18:41 04:24 13.65
14 636 DESORNE LUCAS LA THURE CAG 3 0:19:08 04:30 13.33
15 525 DE PESTEL HERVÉ VAULX MH 1 0:20:04 04:43 12.71
16 539 THOMAS PAUL BARRIERE MH 2 0:20:23 04:48 12.51
17 553 NAVEAU EMILIE JACO ADF 2 0:20:33 04:50 12.41
18 630 BOKKEN SARAH GRAC CAF 1 0:20:48 04:54 12.26
19 554 RIFFLART MATHIEU JTRR ADH 10 0:20:55 04:55 12.19
20 623 ANSELMO DIEGO KAISER ADH 11 0:21:00 04:56 12.14
21 604 DOLHEN THIERRY JT BESONRIEUX MH 3 0:21:03 04:57 12.11
22 646 CECI MICHEL - ADH 12 0:21:32 05:04 11.84
23 535 DE PESTEL SYLVÈRE VAULX CAG 4 0:21:55 05:09 11.63
24 648 CHARON JD - ADH 13 0:22:01 05:11 11.58
25 609 BARBENÇON MAHÉ JACO xxx   0:22:25 05:16 11.38
26 516 DETRE ABELINE RCABW ADF 3 0:22:31 05:18 11.32
27 537 DE PESTEL SARAH VAULX ADF 4 0:23:06 05:26 11.04
28 507 MARONET BRUNO LA THURE ADH 14 0:23:16 05:28 10.96
29 632 HANNEVART ANTOINE - ADH 15 0:23:20 05:29 10.93
30 633 HANNEVART LAURENT - ADH 16 0:23:23 05:30 10.91
31 621 RIFFLART ARNAUD JTRR SCH 1 0:23:43 05:35 10.75
32 550 BIOT ALEX JTRR MH 4 0:23:48 05:36 10.71
33 538 FOSTY FRANCETTE BARRIERE MF 1 0:24:00 05:39 10.62
34 556 LINDEKENS HERVÉ CSCV HIRSON MH 5 0:24:03 05:40 10.60
35 615 COMPAS NATHALIE - ADF 5 0:24:04 05:40 10.60
36 613 JOYEUX PATRICIA - ADF 6 0:24:11 05:41 10.54
37 511 REMY RICHARD HERMETON MH 6 0:24:19 05:43 10.49
38 629 MICHAUX PATRICK CSCV HIRSON MH 7 0:24:23 05:44 10.46
39 616 FLANDRE OLIVIER - ADH 17 0:24:31 05:46 10.40
40 605 BOUILLET HUGO - xxx   0:24:38 05:48 10.35
41 634 BRASSEUR REMY - MH 8 0:24:49 05:50 10.28
42 643 LANNOO SÉBASTIEN - ADH 18 0:24:56 05:52 10.23
43 638 COQUELET MICHEL LA THURE MH 9 0:25:14 05:56 10.11
44 522 PONCELET J-CLAUDE - MH 10 0:25:20 05:58 10.07
45 549 HANOTEAUX RAYM LA THURE MH 11 0:25:36 06:01 9.96
46 619 VANDEWIELE AUDE - ADF 7 0:25:44 06:03 9.91
47 640 DEBRUYN LAURA - ADF 8 0:25:57 06:06 9.83
48 542 DE PESTEL HÉLÈNE VAULX ADF 9 0:26:03 06:08 9.79
49 508 LINTHOUT MICHAËL WAL'COURSE SCH 2 0:26:48 06:18 9.51
50 610 DESJARDIN CHRISTIANE JACO ADF 10 0:26:50 06:19 9.50
51 512 GEORGE VALÉRIE JTRR ADF 11 0:26:56 06:20 9.47
52 501 SEPTON LUCIE LA THURE MF 2 0:26:58 06:21 9.46
53 603 DUBOIS JEAN-FRANÇOIS RRB ADH 19 0:27:15 06:25 9.36
54 624 BRISON MANON - xxx   0:27:30 06:28 9.27
55 644 VANDENDRIESSCHE LU - xxx   0:27:31 06:28 9.27
56 645 VANDENDRIESSCHE YS - xxx   0:27:31 06:28 9.27
57 618 BASTIN CLAUDE JACO MH 12 0:27:33 06:29 9.26
58 641 LANNOO MAYDLEEN JACO CAF 2 0:28:02 06:36 9.10
59 517 DELERS ETIENNE LA THURE MH 13 0:28:03 06:36 9.09
60 532 PAGE PAULINE JACO CAF 3 0:28:32 06:43 8.94
61 614 SULINOWSKI AURORE - ADF 12 0:28:33 06:43 8.93
62 541 SAPART VALÉRIE LA THURE ADF 13 0:29:01 06:50 8.79
63 606 PICART FRÉDÉRIC FRAIRE ADH 20 0:29:06 06:51 8.76
64 518 TOURNEUR SOPHIE LA THURE ADF 14 0:29:08 06:51 8.75
65 637 GOUTIERE MARIE SHARKS ADF 15 0:29:09 06:52 8.75
66 649 LAMBOT ROMAIN - ADH 21 0:29:11 06:52 8.74
67 628 MICHAUX AGNES CSCV HIRSON MF 3 0:29:20 06:54 8.69
68 617 EZZENFARI MALIKA - ADF 16 0:29:23 06:55 8.68
69 647 HAEGEMAN ELINE - xxx   0:29:26 06:56 8.66
70 642 LANNOO LAURA JACO SCF 1 0:29:47 07:00 8.56
71 626 LAFFINEUR CHRISTIAN LA THURE MH 14 0:30:42 07:13 8.31
72 601 ELOY JEAN-CLAUDE LA THURE MH 15 0:31:25 07:24 8.12
73 607 BLONDEL M-JEANNE LA THURE MF 4 0:31:50 07:29 8.01
74 639 GAUTHIER CÉLINE JTRR ADF 18 0:32:41 07:41 7.80
75 608 KOCUREK FRANCIS JACO MH 16 0:35:41 08:24 7.15
76 625 BERWART GEORGES - MH 17 0:45:18 10:40 5.63